owner,sensor,date,latitude,longitude,relative_humidity,qcFlag 
COMPS,ioos:station:USF.COMPS:ARP:1,2016-11-18T22:00:00Z,28.4330,-82.6670,72.26,1111122 
COMPS,ioos:station:USF.COMPS:ARP:1,2016-11-18T22:06:00Z,28.4330,-82.6670,72.47,1111122 
COMPS,ioos:station:USF.COMPS:ARP:1,2016-11-18T22:12:00Z,28.4330,-82.6670,73.43,1111122 
COMPS,ioos:station:USF.COMPS:ARP:1,2016-11-18T22:18:00Z,28.4330,-82.6670,74.11,1111122 
COMPS,ioos:station:USF.COMPS:ARP:1,2016-11-18T22:24:00Z,28.4330,-82.6670,75.78,1111122 
COMPS,ioos:station:USF.COMPS:ARP:1,2016-11-18T22:30:00Z,28.4330,-82.6670,75.92,1111122 
COMPS,ioos:station:USF.COMPS:ARP:1,2016-11-18T22:36:00Z,28.4330,-82.6670,76.68,1111122 
COMPS,ioos:station:USF.COMPS:ARP:1,2016-11-18T22:42:00Z,28.4330,-82.6670,77.74,1111122 
COMPS,ioos:station:USF.COMPS:ARP:1,2016-11-18T22:48:00Z,28.4330,-82.6670,78.93,1111122 
COMPS,ioos:station:USF.COMPS:ARP:1,2016-11-18T22:54:00Z,28.4330,-82.6670,80.45,1111122 
COMPS,ioos:station:USF.COMPS:ARP:1,2016-11-18T23:00:00Z,28.4330,-82.6670,81.52,1111122 
COMPS,ioos:station:USF.COMPS:ARP:1,2016-11-18T23:06:00Z,28.4330,-82.6670,81.91,1111122 
COMPS,ioos:station:USF.COMPS:ARP:1,2016-11-18T23:12:00Z,28.4330,-82.6670,82.13,1111122 
COMPS,ioos:station:USF.COMPS:ARP:1,2016-11-18T23:18:00Z,28.4330,-82.6670,82.34,1111122 
COMPS,ioos:station:USF.COMPS:ARP:1,2016-11-18T23:24:00Z,28.4330,-82.6670,82.82,1111122 
COMPS,ioos:station:USF.COMPS:ARP:1,2016-11-18T23:30:00Z,28.4330,-82.6670,83.24,1111122 
COMPS,ioos:station:USF.COMPS:ARP:1,2016-11-18T23:36:00Z,28.4330,-82.6670,83.67,1111122 
COMPS,ioos:station:USF.COMPS:ARP:1,2016-11-18T23:42:00Z,28.4330,-82.6670,84.02,1111122 
COMPS,ioos:station:USF.COMPS:ARP:1,2016-11-18T23:48:00Z,28.4330,-82.6670,84.66,1111122 
COMPS,ioos:station:USF.COMPS:ARP:1,2016-11-18T23:54:00Z,28.4330,-82.6670,85.46,1111122 
COMPS,ioos:station:USF.COMPS:ARP:1,2016-11-19T00:00:00Z,28.4330,-82.6670,85.88,1111122 
COMPS,ioos:station:USF.COMPS:ARP:1,2016-11-19T00:06:00Z,28.4330,-82.6670,85.97,1111122 
COMPS,ioos:station:USF.COMPS:ARP:1,2016-11-19T00:12:00Z,28.4330,-82.6670,86.38,1111122 
COMPS,ioos:station:USF.COMPS:ARP:1,2016-11-19T00:18:00Z,28.4330,-82.6670,87.09,1111122 
COMPS,ioos:station:USF.COMPS:ARP:1,2016-11-19T00:24:00Z,28.4330,-82.6670,88.37,1111122 
COMPS,ioos:station:USF.COMPS:ARP:1,2016-11-19T00:30:00Z,28.4330,-82.6670,89.08,1111122 
COMPS,ioos:station:USF.COMPS:ARP:1,2016-11-19T00:36:00Z,28.4330,-82.6670,89.43,1111122 
COMPS,ioos:station:USF.COMPS:ARP:1,2016-11-19T00:42:00Z,28.4330,-82.6670,90.14,1111122 
COMPS,ioos:station:USF.COMPS:ARP:1,2016-11-19T00:48:00Z,28.4330,-82.6670,90.45,1111122 
COMPS,ioos:station:USF.COMPS:ARP:1,2016-11-19T00:54:00Z,28.4330,-82.6670,90.82,1111122 
COMPS,ioos:station:USF.COMPS:ARP:1,2016-11-19T01:00:00Z,28.4330,-82.6670,91.08,1111122 
COMPS,ioos:station:USF.COMPS:ARP:1,2016-11-19T01:06:00Z,28.4330,-82.6670,91.39,1111122 
COMPS,ioos:station:USF.COMPS:ARP:1,2016-11-19T01:12:00Z,28.4330,-82.6670,91.55,1111122 
COMPS,ioos:station:USF.COMPS:ARP:1,2016-11-19T01:18:00Z,28.4330,-82.6670,91.82,1111122 
COMPS,ioos:station:USF.COMPS:ARP:1,2016-11-19T01:24:00Z,28.4330,-82.6670,92.06,1111122 
COMPS,ioos:station:USF.COMPS:ARP:1,2016-11-19T01:30:00Z,28.4330,-82.6670,92.24,1111122 
COMPS,ioos:station:USF.COMPS:ARP:1,2016-11-19T01:36:00Z,28.4330,-82.6670,92.58,1111122 
COMPS,ioos:station:USF.COMPS:ARP:1,2016-11-19T01:42:00Z,28.4330,-82.6670,92.86,1111122 
COMPS,ioos:station:USF.COMPS:ARP:1,2016-11-19T01:48:00Z,28.4330,-82.6670,92.6,1111122 
COMPS,ioos:station:USF.COMPS:ARP:1,2016-11-19T01:54:00Z,28.4330,-82.6670,92.66,1111122 
COMPS,ioos:station:USF.COMPS:ARP:1,2016-11-19T02:00:00Z,28.4330,-82.6670,92.9,1111122 
COMPS,ioos:station:USF.COMPS:ARP:1,2016-11-19T02:06:00Z,28.4330,-82.6670,93.22,1111122 
COMPS,ioos:station:USF.COMPS:ARP:1,2016-11-19T02:12:00Z,28.4330,-82.6670,93.37,1111122 
COMPS,ioos:station:USF.COMPS:ARP:1,2016-11-19T02:18:00Z,28.4330,-82.6670,93.66,1111122 
COMPS,ioos:station:USF.COMPS:ARP:1,2016-11-19T02:24:00Z,28.4330,-82.6670,93.78,1111122 
COMPS,ioos:station:USF.COMPS:ARP:1,2016-11-19T02:30:00Z,28.4330,-82.6670,93.78,1111122 
COMPS,ioos:station:USF.COMPS:ARP:1,2016-11-19T02:36:00Z,28.4330,-82.6670,93.69,1111122 
COMPS,ioos:station:USF.COMPS:ARP:1,2016-11-19T02:42:00Z,28.4330,-82.6670,93.29,1111122 
COMPS,ioos:station:USF.COMPS:ARP:1,2016-11-19T02:48:00Z,28.4330,-82.6670,93.3,1111122 
COMPS,ioos:station:USF.COMPS:ARP:1,2016-11-19T02:54:00Z,28.4330,-82.6670,93.05,1111122 
COMPS,ioos:station:USF.COMPS:ARP:1,2016-11-19T03:00:00Z,28.4330,-82.6670,93.07,1111122 
COMPS,ioos:station:USF.COMPS:ARP:1,2016-11-19T03:06:00Z,28.4330,-82.6670,93.07,1111122 
COMPS,ioos:station:USF.COMPS:ARP:1,2016-11-19T03:12:00Z,28.4330,-82.6670,92.88,1111122 
COMPS,ioos:station:USF.COMPS:ARP:1,2016-11-19T03:18:00Z,28.4330,-82.6670,92.84,1111122 
COMPS,ioos:station:USF.COMPS:ARP:1,2016-11-19T03:24:00Z,28.4330,-82.6670,92.57,1111122 
COMPS,ioos:station:USF.COMPS:ARP:1,2016-11-19T03:30:00Z,28.4330,-82.6670,92.34,1111122 
COMPS,ioos:station:USF.COMPS:ARP:1,2016-11-19T03:36:00Z,28.4330,-82.6670,92.42,1111122 
COMPS,ioos:station:USF.COMPS:ARP:1,2016-11-19T03:42:00Z,28.4330,-82.6670,92.65,1111122 
COMPS,ioos:station:USF.COMPS:ARP:1,2016-11-19T03:48:00Z,28.4330,-82.6670,92.15,1111122 
COMPS,ioos:station:USF.COMPS:ARP:1,2016-11-19T03:54:00Z,28.4330,-82.6670,91.52,1111122 
COMPS,ioos:station:USF.COMPS:ARP:1,2016-11-19T04:00:00Z,28.4330,-82.6670,91.03,1111122 
COMPS,ioos:station:USF.COMPS:ARP:1,2016-11-19T04:06:00Z,28.4330,-82.6670,91.18,1111122 
COMPS,ioos:station:USF.COMPS:ARP:1,2016-11-19T04:12:00Z,28.4330,-82.6670,91.18,1111122 
COMPS,ioos:station:USF.COMPS:ARP:1,2016-11-19T04:18:00Z,28.4330,-82.6670,90.8,1111122 
COMPS,ioos:station:USF.COMPS:ARP:1,2016-11-19T04:24:00Z,28.4330,-82.6670,90.03,1111122 
COMPS,ioos:station:USF.COMPS:ARP:1,2016-11-19T04:30:00Z,28.4330,-82.6670,90.14,1111122 
COMPS,ioos:station:USF.COMPS:ARP:1,2016-11-19T04:36:00Z,28.4330,-82.6670,89.82,1111122 
COMPS,ioos:station:USF.COMPS:ARP:1,2016-11-19T04:42:00Z,28.4330,-82.6670,89.89,1111122 
COMPS,ioos:station:USF.COMPS:ARP:1,2016-11-19T04:48:00Z,28.4330,-82.6670,90.75,1111122 
COMPS,ioos:station:USF.COMPS:ARP:1,2016-11-19T04:54:00Z,28.4330,-82.6670,90.73,1111122 
COMPS,ioos:station:USF.COMPS:ARP:1,2016-11-19T05:00:00Z,28.4330,-82.6670,90.52,1111122 
COMPS,ioos:station:USF.COMPS:ARP:1,2016-11-19T05:06:00Z,28.4330,-82.6670,90.0,1111122 
COMPS,ioos:station:USF.COMPS:ARP:1,2016-11-19T05:12:00Z,28.4330,-82.6670,88.59,1111122 
COMPS,ioos:station:USF.COMPS:ARP:1,2016-11-19T05:18:00Z,28.4330,-82.6670,88.62,1111122 
COMPS,ioos:station:USF.COMPS:ARP:1,2016-11-19T05:24:00Z,28.4330,-82.6670,88.75,1111122 
COMPS,ioos:station:USF.COMPS:ARP:1,2016-11-19T05:30:00Z,28.4330,-82.6670,89.18,1111122 
COMPS,ioos:station:USF.COMPS:ARP:1,2016-11-19T05:36:00Z,28.4330,-82.6670,89.61,1111122 
COMPS,ioos:station:USF.COMPS:ARP:1,2016-11-19T05:42:00Z,28.4330,-82.6670,89.93,1111122 
COMPS,ioos:station:USF.COMPS:ARP:1,2016-11-19T05:48:00Z,28.4330,-82.6670,89.89,1111122 
COMPS,ioos:station:USF.COMPS:ARP:1,2016-11-19T05:54:00Z,28.4330,-82.6670,90.61,1111122 
COMPS,ioos:station:USF.COMPS:ARP:1,2016-11-19T06:00:00Z,28.4330,-82.6670,92.14,1111122 
COMPS,ioos:station:USF.COMPS:ARP:1,2016-11-19T06:06:00Z,28.4330,-82.6670,92.82,1111122 
COMPS,ioos:station:USF.COMPS:ARP:1,2016-11-19T06:12:00Z,28.4330,-82.6670,92.27,1111122 
COMPS,ioos:station:USF.COMPS:ARP:1,2016-11-19T06:18:00Z,28.4330,-82.6670,91.38,1111122 
COMPS,ioos:station:USF.COMPS:ARP:1,2016-11-19T06:24:00Z,28.4330,-82.6670,90.48,1111122 
COMPS,ioos:station:USF.COMPS:ARP:1,2016-11-19T06:30:00Z,28.4330,-82.6670,91.15,1111122 
COMPS,ioos:station:USF.COMPS:ARP:1,2016-11-19T06:36:00Z,28.4330,-82.6670,92.16,1111122 
COMPS,ioos:station:USF.COMPS:ARP:1,2016-11-19T06:42:00Z,28.4330,-82.6670,92.8,1111122 
COMPS,ioos:station:USF.COMPS:ARP:1,2016-11-19T06:48:00Z,28.4330,-82.6670,92.94,1111122 
COMPS,ioos:station:USF.COMPS:ARP:1,2016-11-19T06:54:00Z,28.4330,-82.6670,93.13,1111122 
COMPS,ioos:station:USF.COMPS:ARP:1,2016-11-19T07:00:00Z,28.4330,-82.6670,93.01,1111122 
COMPS,ioos:station:USF.COMPS:ARP:1,2016-11-19T07:06:00Z,28.4330,-82.6670,93.13,1111122 
COMPS,ioos:station:USF.COMPS:ARP:1,2016-11-19T07:12:00Z,28.4330,-82.6670,93.37,1111122 
COMPS,ioos:station:USF.COMPS:ARP:1,2016-11-19T07:18:00Z,28.4330,-82.6670,93.73,1111122 
COMPS,ioos:station:USF.COMPS:ARP:1,2016-11-19T07:24:00Z,28.4330,-82.6670,93.74,1111122 
COMPS,ioos:station:USF.COMPS:ARP:1,2016-11-19T07:30:00Z,28.4330,-82.6670,93.66,1111122 
COMPS,ioos:station:USF.COMPS:ARP:1,2016-11-19T07:36:00Z,28.4330,-82.6670,93.85,1111122 
COMPS,ioos:station:USF.COMPS:ARP:1,2016-11-19T07:42:00Z,28.4330,-82.6670,93.96,1111122 
COMPS,ioos:station:USF.COMPS:ARP:1,2016-11-19T07:48:00Z,28.4330,-82.6670,94.08,1111122 
COMPS,ioos:station:USF.COMPS:ARP:1,2016-11-19T07:54:00Z,28.4330,-82.6670,94.06,1111122 
COMPS,ioos:station:USF.COMPS:ARP:1,2016-11-19T08:00:00Z,28.4330,-82.6670,94.18,1111122 
COMPS,ioos:station:USF.COMPS:ARP:1,2016-11-19T08:06:00Z,28.4330,-82.6670,94.3,1111122 
COMPS,ioos:station:USF.COMPS:ARP:1,2016-11-19T08:12:00Z,28.4330,-82.6670,94.34,1111122 
COMPS,ioos:station:USF.COMPS:ARP:1,2016-11-19T08:18:00Z,28.4330,-82.6670,94.61,1111122 
COMPS,ioos:station:USF.COMPS:ARP:1,2016-11-19T08:24:00Z,28.4330,-82.6670,94.6,1111122 
COMPS,ioos:station:USF.COMPS:ARP:1,2016-11-19T08:30:00Z,28.4330,-82.6670,94.71,1111122 
COMPS,ioos:station:USF.COMPS:ARP:1,2016-11-19T08:36:00Z,28.4330,-82.6670,94.92,1111122 
COMPS,ioos:station:USF.COMPS:ARP:1,2016-11-19T08:42:00Z,28.4330,-82.6670,94.72,1111122 
COMPS,ioos:station:USF.COMPS:ARP:1,2016-11-19T08:48:00Z,28.4330,-82.6670,95.19,1111122 
COMPS,ioos:station:USF.COMPS:ARP:1,2016-11-19T08:54:00Z,28.4330,-82.6670,95.17,1111122 
COMPS,ioos:station:USF.COMPS:ARP:1,2016-11-19T09:00:00Z,28.4330,-82.6670,95.3,1111122 
COMPS,ioos:station:USF.COMPS:ARP:1,2016-11-19T09:06:00Z,28.4330,-82.6670,95.59,1111122 
COMPS,ioos:station:USF.COMPS:ARP:1,2016-11-19T09:12:00Z,28.4330,-82.6670,95.7,1111122 
COMPS,ioos:station:USF.COMPS:ARP:1,2016-11-19T09:18:00Z,28.4330,-82.6670,95.78,1111122 
COMPS,ioos:station:USF.COMPS:ARP:1,2016-11-19T09:24:00Z,28.4330,-82.6670,95.96,1111122 
COMPS,ioos:station:USF.COMPS:ARP:1,2016-11-19T09:30:00Z,28.4330,-82.6670,96.05,1111122 
COMPS,ioos:station:USF.COMPS:ARP:1,2016-11-19T09:36:00Z,28.4330,-82.6670,96.0,1111122 
COMPS,ioos:station:USF.COMPS:ARP:1,2016-11-19T09:42:00Z,28.4330,-82.6670,96.07,1111122 
COMPS,ioos:station:USF.COMPS:ARP:1,2016-11-19T09:48:00Z,28.4330,-82.6670,96.18,1111122 
COMPS,ioos:station:USF.COMPS:ARP:1,2016-11-19T09:54:00Z,28.4330,-82.6670,96.12,1111122 
COMPS,ioos:station:USF.COMPS:ARP:1,2016-11-19T10:00:00Z,28.4330,-82.6670,96.56,1111122 
COMPS,ioos:station:USF.COMPS:ARP:1,2016-11-19T10:06:00Z,28.4330,-82.6670,96.77,1111122 
COMPS,ioos:station:USF.COMPS:ARP:1,2016-11-19T10:12:00Z,28.4330,-82.6670,96.87,1111122 
COMPS,ioos:station:USF.COMPS:ARP:1,2016-11-19T10:18:00Z,28.4330,-82.6670,96.74,1111122 
COMPS,ioos:station:USF.COMPS:ARP:1,2016-11-19T10:24:00Z,28.4330,-82.6670,96.66,1111122 
COMPS,ioos:station:USF.COMPS:ARP:1,2016-11-19T10:30:00Z,28.4330,-82.6670,96.46,1111122 
COMPS,ioos:station:USF.COMPS:ARP:1,2016-11-19T10:36:00Z,28.4330,-82.6670,96.61,1111122 
COMPS,ioos:station:USF.COMPS:ARP:1,2016-11-19T10:42:00Z,28.4330,-82.6670,96.66,1111122 
COMPS,ioos:station:USF.COMPS:ARP:1,2016-11-19T10:48:00Z,28.4330,-82.6670,96.44,1111122 
COMPS,ioos:station:USF.COMPS:ARP:1,2016-11-19T10:54:00Z,28.4330,-82.6670,96.16,1111122 
COMPS,ioos:station:USF.COMPS:ARP:1,2016-11-19T11:00:00Z,28.4330,-82.6670,96.19,1111122 
COMPS,ioos:station:USF.COMPS:ARP:1,2016-11-19T11:06:00Z,28.4330,-82.6670,95.96,1111122 
COMPS,ioos:station:USF.COMPS:ARP:1,2016-11-19T11:12:00Z,28.4330,-82.6670,95.79,1111122 
COMPS,ioos:station:USF.COMPS:ARP:1,2016-11-19T11:18:00Z,28.4330,-82.6670,95.78,1111122 
COMPS,ioos:station:USF.COMPS:ARP:1,2016-11-19T11:24:00Z,28.4330,-82.6670,95.85,1111122 
COMPS,ioos:station:USF.COMPS:ARP:1,2016-11-19T11:30:00Z,28.4330,-82.6670,95.66,1111122 
COMPS,ioos:station:USF.COMPS:ARP:1,2016-11-19T11:36:00Z,28.4330,-82.6670,95.48,1111122 
COMPS,ioos:station:USF.COMPS:ARP:1,2016-11-19T11:42:00Z,28.4330,-82.6670,95.38,1111122 
COMPS,ioos:station:USF.COMPS:ARP:1,2016-11-19T11:48:00Z,28.4330,-82.6670,95.55,1111122 
COMPS,ioos:station:USF.COMPS:ARP:1,2016-11-19T11:54:00Z,28.4330,-82.6670,95.65,1111122 
COMPS,ioos:station:USF.COMPS:ARP:1,2016-11-19T12:00:00Z,28.4330,-82.6670,95.58,1111122 
COMPS,ioos:station:USF.COMPS:ARP:1,2016-11-19T12:06:00Z,28.4330,-82.6670,95.52,1111122 
COMPS,ioos:station:USF.COMPS:ARP:1,2016-11-19T12:12:00Z,28.4330,-82.6670,95.48,1111122 
COMPS,ioos:station:USF.COMPS:ARP:1,2016-11-19T12:18:00Z,28.4330,-82.6670,95.29,1111122 
COMPS,ioos:station:USF.COMPS:ARP:1,2016-11-19T12:24:00Z,28.4330,-82.6670,95.32,1111122 
COMPS,ioos:station:USF.COMPS:ARP:1,2016-11-19T12:30:00Z,28.4330,-82.6670,94.88,1111122 
COMPS,ioos:station:USF.COMPS:ARP:1,2016-11-19T12:36:00Z,28.4330,-82.6670,94.72,1111122 
COMPS,ioos:station:USF.COMPS:ARP:1,2016-11-19T12:42:00Z,28.4330,-82.6670,94.66,1111122 
COMPS,ioos:station:USF.COMPS:ARP:1,2016-11-19T12:48:00Z,28.4330,-82.6670,94.25,1111122 
COMPS,ioos:station:USF.COMPS:ARP:1,2016-11-19T12:54:00Z,28.4330,-82.6670,93.41,1111122 
COMPS,ioos:station:USF.COMPS:ARP:1,2016-11-19T13:00:00Z,28.4330,-82.6670,91.94,1111122 
COMPS,ioos:station:USF.COMPS:ARP:1,2016-11-19T13:06:00Z,28.4330,-82.6670,90.64,1111122 
COMPS,ioos:station:USF.COMPS:ARP:1,2016-11-19T13:12:00Z,28.4330,-82.6670,89.31,1111122 
COMPS,ioos:station:USF.COMPS:ARP:1,2016-11-19T13:18:00Z,28.4330,-82.6670,87.92,1111122 
COMPS,ioos:station:USF.COMPS:ARP:1,2016-11-19T13:24:00Z,28.4330,-82.6670,87.23,1111122 
COMPS,ioos:station:USF.COMPS:ARP:1,2016-11-19T13:30:00Z,28.4330,-82.6670,86.08,1111122 
COMPS,ioos:station:USF.COMPS:ARP:1,2016-11-19T13:36:00Z,28.4330,-82.6670,85.24,1111122 
COMPS,ioos:station:USF.COMPS:ARP:1,2016-11-19T13:42:00Z,28.4330,-82.6670,84.08,1111122 
COMPS,ioos:station:USF.COMPS:ARP:1,2016-11-19T13:48:00Z,28.4330,-82.6670,83.36,1111122 
COMPS,ioos:station:USF.COMPS:ARP:1,2016-11-19T13:54:00Z,28.4330,-82.6670,81.39,1111122 
COMPS,ioos:station:USF.COMPS:ARP:1,2016-11-19T14:00:00Z,28.4330,-82.6670,79.8,1111122 
COMPS,ioos:station:USF.COMPS:ARP:1,2016-11-19T14:06:00Z,28.4330,-82.6670,79.76,1111122 
COMPS,ioos:station:USF.COMPS:ARP:1,2016-11-19T14:12:00Z,28.4330,-82.6670,77.24,1111122 
COMPS,ioos:station:USF.COMPS:ARP:1,2016-11-19T14:18:00Z,28.4330,-82.6670,75.96,1111122 
COMPS,ioos:station:USF.COMPS:ARP:1,2016-11-19T14:24:00Z,28.4330,-82.6670,75.32,1111122 
COMPS,ioos:station:USF.COMPS:ARP:1,2016-11-19T14:30:00Z,28.4330,-82.6670,72.67,1111122 
COMPS,ioos:station:USF.COMPS:ARP:1,2016-11-19T14:36:00Z,28.4330,-82.6670,70.53,1111122 
COMPS,ioos:station:USF.COMPS:ARP:1,2016-11-19T14:42:00Z,28.4330,-82.6670,67.45,1111122 
COMPS,ioos:station:USF.COMPS:ARP:1,2016-11-19T14:48:00Z,28.4330,-82.6670,66.06,1111122 
COMPS,ioos:station:USF.COMPS:ARP:1,2016-11-19T14:54:00Z,28.4330,-82.6670,65.09,1111122 
COMPS,ioos:station:USF.COMPS:ARP:1,2016-11-19T15:00:00Z,28.4330,-82.6670,64.97,1111122 
COMPS,ioos:station:USF.COMPS:ARP:1,2016-11-19T15:06:00Z,28.4330,-82.6670,64.82,1111122 
COMPS,ioos:station:USF.COMPS:ARP:1,2016-11-19T15:12:00Z,28.4330,-82.6670,66.95,1111122 
COMPS,ioos:station:USF.COMPS:ARP:1,2016-11-19T15:18:00Z,28.4330,-82.6670,67.95,1111122 
COMPS,ioos:station:USF.COMPS:ARP:1,2016-11-19T15:24:00Z,28.4330,-82.6670,64.55,1111122 
COMPS,ioos:station:USF.COMPS:ARP:1,2016-11-19T15:30:00Z,28.4330,-82.6670,71.2,1111122 
COMPS,ioos:station:USF.COMPS:ARP:1,2016-11-19T15:36:00Z,28.4330,-82.6670,72.28,1111122 
COMPS,ioos:station:USF.COMPS:ARP:1,2016-11-19T15:42:00Z,28.4330,-82.6670,70.84,1111122 
COMPS,ioos:station:USF.COMPS:ARP:1,2016-11-19T15:48:00Z,28.4330,-82.6670,68.24,1111122 
COMPS,ioos:station:USF.COMPS:ARP:1,2016-11-19T15:54:00Z,28.4330,-82.6670,68.97,1111122 
COMPS,ioos:station:USF.COMPS:ARP:1,2016-11-19T16:00:00Z,28.4330,-82.6670,70.74,1111122 
COMPS,ioos:station:USF.COMPS:ARP:1,2016-11-19T16:06:00Z,28.4330,-82.6670,70.3,1111122 
COMPS,ioos:station:USF.COMPS:ARP:1,2016-11-19T16:12:00Z,28.4330,-82.6670,69.48,1111122 
COMPS,ioos:station:USF.COMPS:ARP:1,2016-11-19T16:18:00Z,28.4330,-82.6670,70.01,1111122 
COMPS,ioos:station:USF.COMPS:ARP:1,2016-11-19T16:24:00Z,28.4330,-82.6670,69.66,1111122 
COMPS,ioos:station:USF.COMPS:ARP:1,2016-11-19T16:30:00Z,28.4330,-82.6670,70.1,1111122 
COMPS,ioos:station:USF.COMPS:ARP:1,2016-11-19T16:36:00Z,28.4330,-82.6670,71.26,1111122 
COMPS,ioos:station:USF.COMPS:ARP:1,2016-11-19T16:42:00Z,28.4330,-82.6670,70.24,1111122 
COMPS,ioos:station:USF.COMPS:ARP:1,2016-11-19T16:48:00Z,28.4330,-82.6670,70.85,1111122 
COMPS,ioos:station:USF.COMPS:ARP:1,2016-11-19T16:54:00Z,28.4330,-82.6670,71.58,1111122 
COMPS,ioos:station:USF.COMPS:ARP:1,2016-11-19T17:00:00Z,28.4330,-82.6670,71.41,1111122 
COMPS,ioos:station:USF.COMPS:ARP:1,2016-11-19T17:06:00Z,28.4330,-82.6670,70.68,1111122 
COMPS,ioos:station:USF.COMPS:ARP:1,2016-11-19T17:12:00Z,28.4330,-82.6670,70.11,1111122 
COMPS,ioos:station:USF.COMPS:ARP:1,2016-11-19T17:18:00Z,28.4330,-82.6670,66.35,1111122 
COMPS,ioos:station:USF.COMPS:ARP:1,2016-11-19T17:24:00Z,28.4330,-82.6670,66.19,1111122 
COMPS,ioos:station:USF.COMPS:ARP:1,2016-11-19T17:30:00Z,28.4330,-82.6670,67.38,1111122 
COMPS,ioos:station:USF.COMPS:ARP:1,2016-11-19T17:36:00Z,28.4330,-82.6670,67.39,1111122 
COMPS,ioos:station:USF.COMPS:ARP:1,2016-11-19T17:42:00Z,28.4330,-82.6670,68.01,1111122 
COMPS,ioos:station:USF.COMPS:ARP:1,2016-11-19T17:48:00Z,28.4330,-82.6670,67.82,1111122 
COMPS,ioos:station:USF.COMPS:ARP:1,2016-11-19T17:54:00Z,28.4330,-82.6670,68.21,1111122 
COMPS,ioos:station:USF.COMPS:ARP:1,2016-11-19T18:00:00Z,28.4330,-82.6670,68.52,1111122 
COMPS,ioos:station:USF.COMPS:ARP:1,2016-11-19T18:06:00Z,28.4330,-82.6670,67.12,1111122 
COMPS,ioos:station:USF.COMPS:ARP:1,2016-11-19T18:12:00Z,28.4330,-82.6670,68.41,1111122 
COMPS,ioos:station:USF.COMPS:ARP:1,2016-11-19T18:18:00Z,28.4330,-82.6670,68.02,1111122 
COMPS,ioos:station:USF.COMPS:ARP:1,2016-11-19T18:24:00Z,28.4330,-82.6670,68.63,1111122 
COMPS,ioos:station:USF.COMPS:ARP:1,2016-11-19T18:30:00Z,28.4330,-82.6670,68.75,1111122 
COMPS,ioos:station:USF.COMPS:ARP:1,2016-11-19T18:36:00Z,28.4330,-82.6670,69.66,1111122 
COMPS,ioos:station:USF.COMPS:ARP:1,2016-11-19T18:42:00Z,28.4330,-82.6670,70.51,1111122 
COMPS,ioos:station:USF.COMPS:ARP:1,2016-11-19T18:48:00Z,28.4330,-82.6670,70.54,1111122 
COMPS,ioos:station:USF.COMPS:ARP:1,2016-11-19T18:54:00Z,28.4330,-82.6670,70.82,1111122 
COMPS,ioos:station:USF.COMPS:ARP:1,2016-11-19T19:00:00Z,28.4330,-82.6670,71.45,1111122 
COMPS,ioos:station:USF.COMPS:ARP:1,2016-11-19T19:06:00Z,28.4330,-82.6670,71.39,1111122 
COMPS,ioos:station:USF.COMPS:ARP:1,2016-11-19T19:12:00Z,28.4330,-82.6670,71.77,1111122 
COMPS,ioos:station:USF.COMPS:ARP:1,2016-11-19T19:18:00Z,28.4330,-82.6670,72.3,1111122 
COMPS,ioos:station:USF.COMPS:ARP:1,2016-11-19T19:24:00Z,28.4330,-82.6670,72.48,1111122 
COMPS,ioos:station:USF.COMPS:ARP:1,2016-11-19T19:30:00Z,28.4330,-82.6670,71.83,1111122 
COMPS,ioos:station:USF.COMPS:ARP:1,2016-11-19T19:36:00Z,28.4330,-82.6670,72.06,1111122 
COMPS,ioos:station:USF.COMPS:ARP:1,2016-11-19T19:42:00Z,28.4330,-82.6670,72.83,1111122 
COMPS,ioos:station:USF.COMPS:ARP:1,2016-11-19T19:48:00Z,28.4330,-82.6670,72.89,1111122 
COMPS,ioos:station:USF.COMPS:ARP:1,2016-11-19T19:54:00Z,28.4330,-82.6670,72.85,1111122 
COMPS,ioos:station:USF.COMPS:ARP:1,2016-11-19T20:00:00Z,28.4330,-82.6670,72.63,1111122 
COMPS,ioos:station:USF.COMPS:ARP:1,2016-11-19T20:06:00Z,28.4330,-82.6670,72.19,1111122 
COMPS,ioos:station:USF.COMPS:ARP:1,2016-11-19T20:12:00Z,28.4330,-82.6670,73.07,1111122 
COMPS,ioos:station:USF.COMPS:ARP:1,2016-11-19T20:18:00Z,28.4330,-82.6670,73.06,1111122 
COMPS,ioos:station:USF.COMPS:ARP:1,2016-11-19T20:24:00Z,28.4330,-82.6670,73.65,1111122 
COMPS,ioos:station:USF.COMPS:ARP:1,2016-11-19T20:30:00Z,28.4330,-82.6670,75.11,1111122 
COMPS,ioos:station:USF.COMPS:ARP:1,2016-11-19T20:36:00Z,28.4330,-82.6670,74.9,1111122 
COMPS,ioos:station:USF.COMPS:ARP:1,2016-11-19T20:42:00Z,28.4330,-82.6670,75.39,1111122 
COMPS,ioos:station:USF.COMPS:ARP:1,2016-11-19T20:48:00Z,28.4330,-82.6670,75.31,1111122 
COMPS,ioos:station:USF.COMPS:ARP:1,2016-11-19T20:54:00Z,28.4330,-82.6670,76.78,1111122 
COMPS,ioos:station:USF.COMPS:ARP:1,2016-11-19T21:00:00Z,28.4330,-82.6670,77.08,1111122 
COMPS,ioos:station:USF.COMPS:ARP:1,2016-11-19T21:06:00Z,28.4330,-82.6670,77.54,1111122 
COMPS,ioos:station:USF.COMPS:ARP:1,2016-11-19T21:12:00Z,28.4330,-82.6670,77.83,1111122 
COMPS,ioos:station:USF.COMPS:ARP:1,2016-11-19T21:18:00Z,28.4330,-82.6670,78.98,1111122 
COMPS,ioos:station:USF.COMPS:ARP:1,2016-11-19T21:24:00Z,28.4330,-82.6670,78.58,1111122 
COMPS,ioos:station:USF.COMPS:ARP:1,2016-11-19T21:30:00Z,28.4330,-82.6670,78.94,1111122 
COMPS,ioos:station:USF.COMPS:ARP:1,2016-11-19T21:36:00Z,28.4330,-82.6670,79.86,1111122 
COMPS,ioos:station:USF.COMPS:ARP:1,2016-11-19T21:42:00Z,28.4330,-82.6670,80.72,1111122 
COMPS,ioos:station:USF.COMPS:ARP:1,2016-11-19T21:48:00Z,28.4330,-82.6670,80.75,1111122 
COMPS,ioos:station:USF.COMPS:ARP:1,2016-11-19T21:54:00Z,28.4330,-82.6670,81.25,1111122 
COMPS,ioos:station:USF.COMPS:ARP:1,2016-11-19T22:00:00Z,28.4330,-82.6670,81.91,1111122 
COMPS,ioos:station:USF.COMPS:ARP:1,2016-11-19T22:06:00Z,28.4330,-82.6670,82.46,1111122 
COMPS,ioos:station:USF.COMPS:ARP:1,2016-11-19T22:12:00Z,28.4330,-82.6670,83.15,1111122 
COMPS,ioos:station:USF.COMPS:ARP:1,2016-11-19T22:18:00Z,28.4330,-82.6670,83.56,1111122 
COMPS,ioos:station:USF.COMPS:ARP:1,2016-11-19T22:24:00Z,28.4330,-82.6670,84.57,1111122 
COMPS,ioos:station:USF.COMPS:ARP:1,2016-11-19T22:30:00Z,28.4330,-82.6670,85.41,1111122 
COMPS,ioos:station:USF.COMPS:ARP:1,2016-11-19T22:36:00Z,28.4330,-82.6670,85.56,1111122 
COMPS,ioos:station:USF.COMPS:ARP:1,2016-11-19T22:42:00Z,28.4330,-82.6670,85.45,1111122 
COMPS,ioos:station:USF.COMPS:ARP:1,2016-11-19T22:48:00Z,28.4330,-82.6670,85.09,1111122 
COMPS,ioos:station:USF.COMPS:ARP:1,2016-11-19T22:54:00Z,28.4330,-82.6670,85.43,1111122 
COMPS,ioos:station:USF.COMPS:ARP:1,2016-11-19T23:00:00Z,28.4330,-82.6670,85.32,1111122 
COMPS,ioos:station:USF.COMPS:ARP:1,2016-11-19T23:06:00Z,28.4330,-82.6670,85.67,1111122 
COMPS,ioos:station:USF.COMPS:ARP:1,2016-11-19T23:12:00Z,28.4330,-82.6670,85.96,1111122 
COMPS,ioos:station:USF.COMPS:ARP:1,2016-11-19T23:18:00Z,28.4330,-82.6670,86.32,1111122 
COMPS,ioos:station:USF.COMPS:ARP:1,2016-11-19T23:24:00Z,28.4330,-82.6670,86.73,1111122 
COMPS,ioos:station:USF.COMPS:ARP:1,2016-11-19T23:30:00Z,28.4330,-82.6670,86.94,1111122 
COMPS,ioos:station:USF.COMPS:ARP:1,2016-11-19T23:36:00Z,28.4330,-82.6670,86.74,1111122 
COMPS,ioos:station:USF.COMPS:ARP:1,2016-11-19T23:42:00Z,28.4330,-82.6670,86.39,1111122 
COMPS,ioos:station:USF.COMPS:ARP:1,2016-11-19T23:48:00Z,28.4330,-82.6670,86.42,1111122 
COMPS,ioos:station:USF.COMPS:ARP:1,2016-11-19T23:54:00Z,28.4330,-82.6670,86.0,1111122 
COMPS,ioos:station:USF.COMPS:ARP:1,2016-11-20T00:00:00Z,28.4330,-82.6670,86.06,1111122 
COMPS,ioos:station:USF.COMPS:ARP:1,2016-11-20T00:06:00Z,28.4330,-82.6670,86.34,1111122 
COMPS,ioos:station:USF.COMPS:ARP:1,2016-11-20T00:12:00Z,28.4330,-82.6670,86.42,1111122 
COMPS,ioos:station:USF.COMPS:ARP:1,2016-11-20T00:18:00Z,28.4330,-82.6670,86.34,1111122 
COMPS,ioos:station:USF.COMPS:ARP:1,2016-11-20T00:24:00Z,28.4330,-82.6670,86.72,1111122 
COMPS,ioos:station:USF.COMPS:ARP:1,2016-11-20T00:30:00Z,28.4330,-82.6670,86.98,1111122 
COMPS,ioos:station:USF.COMPS:ARP:1,2016-11-20T00:36:00Z,28.4330,-82.6670,87.28,1111122 
COMPS,ioos:station:USF.COMPS:ARP:1,2016-11-20T00:42:00Z,28.4330,-82.6670,87.27,1111122 
COMPS,ioos:station:USF.COMPS:ARP:1,2016-11-20T00:48:00Z,28.4330,-82.6670,87.08,1111122 
COMPS,ioos:station:USF.COMPS:ARP:1,2016-11-20T00:54:00Z,28.4330,-82.6670,86.03,1111122 
COMPS,ioos:station:USF.COMPS:ARP:1,2016-11-20T01:00:00Z,28.4330,-82.6670,84.04,1111122 
COMPS,ioos:station:USF.COMPS:ARP:1,2016-11-20T01:06:00Z,28.4330,-82.6670,84.06,1111122 